Location: ???????
(55.3754°N, 39.3545°E)
Time: 06:16:32
(UTC+00:00)

USA 229 DEB - Pass Details

Date: 14 April 2026
Orbit: 844 x 1364 km, 63.4° (Epoch: 10 January)

Event Time Altitude Azimuth Distance (km) Brightness Sun altitude
Rises 21:51:08 0° 306° (NW) 3,858 7.0 -24.7°
Reaches altitude 10° 21:53:40 10° 308° (NW) 2,972 6.4 -24.6°
Maximum altitude 22:00:52 81° 36° (NE) 1,230 4.0 -24.5°
Drops below altitude 10° 22:08:58 10° 125° (SE) 3,319 6.0 -24.2°
Sets 22:11:55 0° 126° (SE) 4,332 6.7 -24.1°
